| time (UTC) | temp F | wind direction | speed MPH | gust MPH | rain 1hr in | rain 24hr in | rain mn in | humidity % | barometer mb |
| 20260904170849 | 76 | 331 | 6.0 | 8.0 | 0.00 | 0.09 | 0.09 | 86 | 1016.7 |
| 20260904170344 | 75 | 6 | 1.0 | 1.0 | 0.00 | 0.09 | 0.09 | 88 | 1016.9 |
| 20260904165838 | 75 | 358 | 1.0 | 3.0 | 0.00 | 0.09 | 0.09 | 88 | 1016.9 |
| 20260904165337 | 75 | 356 | 0.0 | 1.0 | 0.00 | 0.09 | 0.09 | 90 | 1016.7 |
| 20260904164832 | 75 | 2 | 2.0 | 1.0 | 0.00 | 0.09 | 0.09 | 89 | 1016.7 |
| 20260904164326 | 75 | 21 | 2.0 | 4.0 | 0.00 | 0.09 | 0.09 | 88 | 1017.0 |
| 20260904163824 | 75 | 6 | 7.0 | 8.0 | 0.00 | 0.09 | 0.09 | 87 | 1017.0 |
| 20260904163323 | 75 | 334 | 5.0 | 7.0 | 0.00 | 0.09 | 0.09 | 88 | 1017.3 |
| 20260904162822 | 76 | 281 | 6.0 | 7.0 | 0.00 | 0.09 | 0.09 | 87 | 1017.0 |
| 20260904162318 | 75 | 300 | 3.0 | 5.0 | 0.00 | 0.09 | 0.09 | 90 | 1017.1 |
| 20260904161814 | 75 | 34 | 3.0 | 5.0 | 0.00 | 0.09 | 0.09 | 90 | 1016.9 |
| 20260904161314 | 75 | 4 | 5.0 | 5.0 | 0.00 | 0.09 | 0.09 | 90 | 1016.7 |
| 20260904160809 | 74 | 293 | 1.0 | 3.0 | 0.00 | 0.09 | 0.09 | 93 | 1016.4 |
| 20260904160304 | 73 | 169 | 3.0 | 5.0 | 0.00 | 0.09 | 0.09 | 95 | 1016.3 |
| 20260904155758 | 73 | 128 | 3.0 | 4.0 | 0.00 | 0.09 | 0.09 | 94 | 1016.4 |
| 20260904155258 | 72 | 157 | 2.0 | 4.0 | 0.00 | 0.09 | 0.09 | 95 | 1016.3 |
| 20260904154756 | 72 | 153 | 4.0 | 7.0 | 0.00 | 0.09 | 0.09 | 96 | 1016.0 |
| 20260904154252 | 71 | 121 | 3.0 | 3.0 | 0.00 | 0.09 | 0.09 | 98 | 1016.4 |
| 20260904153747 | 71 | 137 | 4.0 | 4.0 | 0.00 | 0.09 | 0.09 | 98 | 1016.6 |
| 20260904153243 | 71 | 57 | 1.0 | 1.0 | 0.00 | 0.09 | 0.09 | 98 | 1016.7 |
| 20260904152739 | 71 | 56 | 1.0 | 1.0 | 0.00 | 0.09 | 0.09 | 98 | 1016.9 |
| 20260904152234 | 70 | 56 | 1.0 | 3.0 | 0.07 | 0.09 | 0.09 | 98 | 1016.9 |
| 20260904151729 | 70 | 64 | 1.0 | 1.0 | 0.07 | 0.09 | 0.09 | 98 | 1016.9 |
| 20260904151228 | 70 | 62 | 0.0 | 0.0 | 0.07 | 0.08 | 0.08 | 98 | 1016.9 |
| 20260904150724 | 70 | 62 | 0.0 | 1.0 | 0.12 | 0.08 | 0.08 | 98 | 1016.9 |
| 20260904150219 | 70 | 115 | 0.0 | 1.0 | 0.12 | 0.07 | 0.07 | 98 | 1017.2 |
| 20260904145717 | 70 | 119 | 1.0 | 3.0 | 0.19 | 0.06 | 0.06 | 97 | 1017.2 |
| 20260904145213 | 70 | 58 | 0.0 | 1.0 | 0.12 | 0.04 | 0.04 | 97 | 1017.4 |
| 20260904144708 | 70 | 39 | 1.0 | 1.0 | 0.05 | 0.03 | 0.03 | 97 | 1017.3 |
| 20260904144204 | 70 | 24 | 0.0 | 0.0 | 0.07 | 0.02 | 0.02 | 97 | 1017.3 |
| 20260904143659 | 70 | 20 | 2.0 | 3.0 | 0.07 | 0.02 | 0.02 | 97 | 1017.1 |
| 20260904143156 | 70 | 2 | 0.0 | 0.0 | 0.00 | 0.01 | 0.01 | 97 | 1017.3 |
| 20260904142652 | 70 | 28 | 1.0 | 1.0 | 0.00 | 0.01 | 0.01 | 97 | 1017.0 |
| 20260904142148 | 70 | 20 | 0.0 | 0.0 | 0.00 | 0.01 | 0.01 | 97 | 1017.3 |
| 20260904141643 | 70 | 33 | 1.0 | 1.0 | 0.00 | 0.01 | 0.01 | 98 | 1017.3 |
| 20260904141138 | 71 | 25 | 1.0 | 0.0 | 0.00 | 0.01 | 0.01 | 98 | 1017.1 |
| 20260904140634 | 70 | 12 | 0.0 | 1.0 | 0.00 | 0.01 | 0.01 | 98 | 1017.1 |
| 20260904140133 | 70 | 8 | 0.0 | 1.0 | 0.00 | 0.01 | 0.01 | 98 | 1017.1 |
| 20260904135627 | 71 | 9 | 1.0 | 1.0 | 0.00 | 0.01 | 0.01 | 98 | 1017.0 |
| 20260904135123 | 70 | 9 | 0.0 | 1.0 | 0.00 | 0.01 | 0.01 | 99 | 1016.7 |
| 20260904134619 | 70 | 3 | 0.0 | 0.0 | 0.00 | 0.01 | 0.01 | 99 | 1016.6 |
| 20260904134117 | 70 | 341 | 2.0 | 1.0 | 0.00 | 0.01 | 0.01 | 99 | 1016.5 |
| 20260904133613 | 70 | 156 | 1.0 | 1.0 | 0.00 | 0.01 | 0.01 | 99 | 1016.3 |
| 20260904133109 | 70 | 127 | 1.0 | 1.0 | 0.00 | 0.01 | 0.01 | 99 | 1016.2 |
| 20260904132608 | 69 | 126 | 1.0 | 1.0 | 0.00 | 0.01 | 0.01 | 99 | 1016.1 |
| 20260904132103 | 69 | 126 | 0.0 | 0.0 | 0.00 | 0.01 | 0.01 | 99 | 1016.2 |
| 20260904131603 | 69 | 125 | 0.0 | 1.0 | 0.00 | 0.01 | 0.01 | 99 | 1016.0 |
| 20260904131058 | 69 | 112 | 0.0 | 0.0 | 0.00 | 0.01 | 0.01 | 99 | 1016.2 |
| 20260904130558 | 69 | 112 | 1.0 | 1.0 | 0.00 | 0.01 | 0.01 | 99 | 1016.4 |
| 20260904130053 | 69 | 113 | 0.0 | 0.0 | 0.00 | 0.01 | 0.01 | 99 | 1016.4 |
| 20260904125549 | 68 | 113 | 0.0 | 1.0 | 0.00 | 0.01 | 0.01 | 99 | 1016.1 |
| 20260904125044 | 69 | 112 | 2.0 | 3.0 | 0.00 | 0.01 | 0.01 | 99 | 1016.0 |
| 20260904124539 | 68 | 110 | 0.0 | 0.0 | 0.00 | 0.01 | 0.01 | 99 | 1016.2 |
| 20260904124034 | 68 | 109 | 1.0 | 3.0 | 0.00 | 0.01 | 0.01 | 99 | 1016.3 |
| 20260904123529 | 68 | 108 | 2.0 | 1.0 | 0.00 | 0.01 | 0.01 | 99 | 1016.0 |
| 20260904123024 | 68 | 108 | 2.0 | 1.0 | 0.00 | 0.01 | 0.01 | 99 | 1016.3 |
| 20260904122519 | 68 | 224 | 1.0 | 4.0 | 0.00 | 0.01 | 0.01 | 99 | 1016.3 |
| 20260904122014 | 68 | 110 | 1.0 | 3.0 | 0.00 | 0.01 | 0.01 | 99 | 1016.3 |
| 20260904121509 | 68 | 111 | 0.0 | 1.0 | 0.00 | 0.01 | 0.01 | 99 | 1016.1 |
| 20260904121005 | 68 | 128 | 0.0 | 0.0 | 0.00 | 0.01 | 0.01 | 99 | 1016.4 |
| 20260904120501 | 67 | 126 | 1.0 | 3.0 | 0.00 | 0.01 | 0.01 | 99 | 1016.4 |
| 20260904115955 | 67 | 51 | 0.0 | 0.0 | 0.00 | 0.01 | 0.01 | 99 | 1016.4 |
| 20260904115451 | 67 | 50 | 0.0 | 0.0 | 0.00 | 0.01 | 0.01 | 99 | 1016.5 |
| 20260904114951 | 67 | 50 | 1.0 | 1.0 | 0.00 | 0.01 | 0.01 | 99 | 1016.5 |
| 20260904114446 | 66 | 101 | 0.0 | 0.0 | 0.00 | 0.01 | 0.01 | 99 | 1016.4 |
| 20260904113941 | 66 | 101 | 0.0 | 0.0 | 0.00 | 0.01 | 0.01 | 99 | 1016.2 |
| 20260904113440 | 66 | 101 | 1.0 | 1.0 | 0.00 | 0.01 | 0.01 | 99 | 1016.3 |
| 20260904112940 | 66 | 101 | 1.0 | 1.0 | 0.00 | 0.01 | 0.01 | 99 | 1016.3 |
| 20260904112436 | 66 | 102 | 0.0 | 0.0 | 0.00 | 0.01 | 0.01 | 99 | 1016.2 |
| 20260904111931 | 66 | 100 | 1.0 | 1.0 | 0.00 | 0.01 | 0.01 | 99 | 1016.2 |
| 20260904111427 | 66 | 102 | 1.0 | 3.0 | 0.00 | 0.01 | 0.01 | 99 | 1016.2 |
| 20260904110923 | 65 | 67 | 0.0 | 0.0 | 0.00 | 0.01 | 0.01 | 99 | 1016.1 |
| 20260904110421 | 65 | 68 | 1.0 | 1.0 | 0.00 | 0.01 | 0.01 | 99 | 1016.0 |
| 20260904105917 | 65 | 33 | 0.0 | 0.0 | 0.00 | 0.01 | 0.01 | 99 | 1016.3 |
| 20260904105412 | 65 | 33 | 0.0 | 0.0 | 0.00 | 0.01 | 0.01 | 99 | 1016.0 |
| 20260904104907 | 65 | 33 | 0.0 | 0.0 | 0.00 | 0.01 | 0.01 | 99 | 1016.1 |
| 20260904104401 | 65 | 33 | 0.0 | 0.0 | 0.00 | 0.01 | 0.01 | 99 | 1015.9 |
| 20260904103859 | 66 | 33 | 0.0 | 0.0 | 0.00 | 0.01 | 0.01 | 99 | 1015.9 |
| 20260904103358 | 66 | 33 | 1.0 | 1.0 | 0.00 | 0.01 | 0.01 | 99 | 1015.5 |
| 20260904102854 | 66 | 33 | 0.0 | 1.0 | 0.00 | 0.01 | 0.01 | 99 | 1015.2 |
| 20260904102349 | 66 | 33 | 0.0 | 0.0 | 0.00 | 0.01 | 0.01 | 99 | 1015.4 |
| 20260904101845 | 66 | 33 | 0.0 | 0.0 | 0.00 | 0.01 | 0.01 | 99 | 1015.9 |
| 20260904101342 | 66 | 33 | 0.0 | 0.0 | 0.00 | 0.01 | 0.01 | 99 | 1015.8 |
| 20260904100837 | 66 | 33 | 0.0 | 0.0 | 0.00 | 0.01 | 0.01 | 99 | 1015.9 |
| 20260904100333 | 66 | 33 | 0.0 | 0.0 | 0.00 | 0.01 | 0.01 | 99 | 1015.9 |
| 20260904095828 | 66 | 33 | 0.0 | 0.0 | 0.00 | 0.01 | 0.01 | 99 | 1016.1 |
| 20260904095322 | 66 | 33 | 0.0 | 0.0 | 0.00 | 0.01 | 0.01 | 99 | 1016.2 |
| 20260904094817 | 65 | 33 | 0.0 | 0.0 | 0.00 | 0.01 | 0.01 | 99 | 1016.1 |
| 20260904094312 | 66 | 33 | 0.0 | 0.0 | 0.00 | 0.01 | 0.01 | 99 | 1015.9 |
| 20260904093808 | 66 | 32 | 0.0 | 0.0 | 0.00 | 0.01 | 0.01 | 99 | 1015.7 |
| 20260904093303 | 66 | 33 | 0.0 | 0.0 | 0.00 | 0.01 | 0.01 | 99 | 1015.6 |
| 20260904092758 | 66 | 33 | 0.0 | 0.0 | 0.00 | 0.01 | 0.01 | 99 | 1015.7 |
| 20260904092255 | 66 | 33 | 0.0 | 0.0 | 0.00 | 0.01 | 0.01 | 99 | 1015.7 |
| 20260904091751 | 66 | 33 | 0.0 | 0.0 | 0.00 | 0.01 | 0.01 | 99 | 1015.7 |
| 20260904091245 | 66 | 32 | 0.0 | 0.0 | 0.00 | 0.01 | 0.01 | 99 | 1015.6 |
| 20260904090741 | 66 | 32 | 0.0 | 0.0 | 0.00 | 0.01 | 0.01 | 99 | 1015.6 |
| 20260904090236 | 66 | 32 | 0.0 | 0.0 | 0.00 | 0.01 | 0.01 | 99 | 1015.6 |
| 20260904085730 | 66 | 32 | 1.0 | 1.0 | 0.00 | 0.01 | 0.01 | 99 | 1015.5 |
| 20260904085226 | 66 | 32 | 2.0 | 3.0 | 0.00 | 0.01 | 0.01 | 99 | 1015.5 |
| 20260904084720 | 66 | 33 | 0.0 | 0.0 | 0.00 | 0.01 | 0.01 | 99 | 1015.3 |
| 20260904084216 | 66 | 33 | 0.0 | 0.0 | 0.00 | 0.01 | 0.01 | 99 | 1015.3 |
| 20260904083712 | 66 | 33 | 1.0 | 1.0 | 0.00 | 0.01 | 0.01 | 99 | 1015.3 |
| 20260904083209 | 66 | 33 | 0.0 | 0.0 | 0.00 | 0.01 | 0.01 | 99 | 1015.1 |
| 20260904082703 | 67 | 33 | 0.0 | 0.0 | 0.00 | 0.01 | 0.01 | 99 | 1015.5 |
| 20260904082158 | 67 | 33 | 0.0 | 0.0 | 0.00 | 0.01 | 0.01 | 99 | 1015.5 |
| 20260904081654 | 67 | 33 | 0.0 | 0.0 | 0.00 | 0.01 | 0.01 | 99 | 1015.7 |
| 20260904081149 | 67 | 33 | 0.0 | 0.0 | 0.00 | 0.01 | 0.01 | 99 | 1015.6 |
| 20260904080644 | 67 | 33 | 0.0 | 0.0 | 0.00 | 0.01 | 0.01 | 99 | 1015.6 |
| 20260904080140 | 67 | 33 | 0.0 | 0.0 | 0.00 | 0.01 | 0.01 | 99 | 1015.7 |
| 20260904075636 | 67 | 33 | 0.0 | 0.0 | 0.00 | 0.01 | 0.01 | 99 | 1015.7 |
| 20260904075131 | 67 | 32 | 0.0 | 0.0 | 0.00 | 0.01 | 0.01 | 99 | 1015.7 |
| 20260904074625 | 67 | 33 | 0.0 | 0.0 | 0.00 | 0.01 | 0.01 | 99 | 1015.5 |
| 20260904074120 | 67 | 33 | 0.0 | 0.0 | 0.00 | 0.01 | 0.01 | 99 | 1015.6 |
| 20260904073614 | 67 | 33 | 0.0 | 0.0 | 0.00 | 0.01 | 0.01 | 99 | 1015.7 |
| 20260904073111 | 67 | 32 | 0.0 | 0.0 | 0.00 | 0.01 | 0.01 | 99 | 1016.0 |
| 20260904072606 | 67 | 32 | 0.0 | 0.0 | 0.00 | 0.01 | 0.01 | 99 | 1015.7 |
| 20260904072101 | 67 | 32 | 0.0 | 0.0 | 0.00 | 0.01 | 0.01 | 99 | 1015.5 |
| 20260904071557 | 67 | 32 | 0.0 | 0.0 | 0.00 | 0.01 | 0.01 | 99 | 1015.7 |
| 20260904071052 | 67 | 32 | 0.0 | 0.0 | 0.00 | 0.01 | 0.01 | 99 | 1015.7 |
| 20260904070550 | 67 | 33 | 0.0 | 0.0 | 0.00 | 0.01 | 0.01 | 99 | 1015.6 |
| 20260904070045 | 67 | 32 | 0.0 | 0.0 | 0.00 | 0.01 | 0.01 | 99 | 1015.4 |
| 20260904065540 | 67 | 33 | 0.0 | 0.0 | 0.00 | 0.01 | 0.01 | 99 | 1015.5 |
| 20260904065037 | 67 | 32 | 0.0 | 0.0 | 0.00 | 0.01 | 0.01 | 99 | 1015.5 |
| 20260904064533 | 67 | 32 | 0.0 | 0.0 | 0.00 | 0.01 | 0.01 | 99 | 1015.9 |
| 20260904064033 | 67 | 32 | 0.0 | 0.0 | 0.00 | 0.01 | 0.01 | 99 | 1015.8 |
| 20260904063529 | 67 | 32 | 0.0 | 0.0 | 0.00 | 0.01 | 0.01 | 98 | 1015.8 |
| 20260904063024 | 67 | 32 | 0.0 | 0.0 | 0.00 | 0.01 | 0.01 | 98 | 1015.7 |
| 20260904062520 | 67 | 33 | 0.0 | 0.0 | 0.00 | 0.01 | 0.01 | 98 | 1015.9 |
| 20260904062015 | 67 | 33 | 0.0 | 0.0 | 0.00 | 0.01 | 0.01 | 98 | 1015.9 |
| 20260904061511 | 68 | 33 | 0.0 | 0.0 | 0.00 | 0.01 | 0.01 | 98 | 1015.9 |
| 20260904061007 | 68 | 33 | 0.0 | 0.0 | 0.00 | 0.01 | 0.01 | 98 | 1015.8 |
| 20260904060503 | 68 | 32 | 0.0 | 0.0 | 0.00 | 0.01 | 0.01 | 98 | 1016.1 |
| 20260904055959 | 68 | 32 | 0.0 | 1.0 | 0.00 | 0.01 | 0.01 | 98 | 1016.0 |
| 20260904055454 | 68 | 32 | 1.0 | 1.0 | 0.00 | 0.01 | 0.01 | 98 | 1016.0 |
| 20260904054949 | 68 | 32 | 1.0 | 1.0 | 0.00 | 0.01 | 0.01 | 98 | 1016.0 |
| 20260904054445 | 68 | 32 | 0.0 | 1.0 | 0.00 | 0.01 | 0.01 | 98 | 1016.2 |
| 20260904053941 | 68 | 33 | 0.0 | 0.0 | 0.00 | 0.01 | 0.01 | 98 | 1015.9 |
| 20260904053440 | 67 | 33 | 0.0 | 0.0 | 0.00 | 0.01 | 0.01 | 98 | 1016.2 |
| 20260904052936 | 68 | 33 | 0.0 | 0.0 | 0.00 | 0.01 | 0.01 | 98 | 1015.9 |
| 20260904052432 | 68 | 33 | 1.0 | 1.0 | 0.00 | 0.01 | 0.01 | 98 | 1015.9 |
| 20260904051928 | 68 | 33 | 0.0 | 0.0 | 0.00 | 0.01 | 0.01 | 98 | 1015.9 |
| 20260904051424 | 68 | 33 | 1.0 | 1.0 | 0.00 | 0.01 | 0.01 | 98 | 1015.9 |
| 20260904050918 | 68 | 32 | 0.0 | 0.0 | 0.00 | 0.01 | 0.01 | 98 | 1015.6 |
| 20260904050415 | 68 | 32 | 0.0 | 0.0 | 0.00 | 0.01 | 0.01 | 98 | 1015.6 |
| 20260904045914 | 68 | 40 | 0.0 | 1.0 | 0.00 | 0.01 | 0.01 | 98 | 1015.5 |
| 20260904045409 | 68 | 40 | 1.0 | 1.0 | 0.00 | 0.01 | 0.01 | 98 | 1015.4 |
| 20260904044909 | 68 | 22 | 1.0 | 1.0 | 0.00 | 0.01 | 0.01 | 98 | 1015.4 |
| 20260904044406 | 68 | 82 | 1.0 | 1.0 | 0.00 | 0.01 | 0.01 | 98 | 1015.4 |
| 20260904043902 | 68 | 82 | 0.0 | 0.0 | 0.00 | 0.01 | 0.01 | 97 | 1015.2 |
| 20260904043358 | 68 | 231 | 2.0 | 3.0 | 0.00 | 0.01 | 0.01 | 98 | 1015.2 |
| 20260904042853 | 68 | 90 | 0.0 | 1.0 | 0.00 | 0.01 | 0.01 | 97 | 1015.3 |
| 20260904042349 | 68 | 73 | 1.0 | 3.0 | 0.00 | 0.01 | 0.01 | 97 | 1015.4 |
| 20260904041844 | 68 | 268 | 1.0 | 3.0 | 0.05 | 0.01 | 0.01 | 97 | 1015.1 |
| 20260904041340 | 68 | 107 | 2.0 | 4.0 | 0.05 | 0.01 | 0.01 | 97 | 1015.2 |
| 20260904040836 | 68 | 160 | 5.0 | 5.0 | 0.00 | 0.00 | 0.00 | 97 | 1015.5 |
| 20260904040331 | 68 | 170 | 1.0 | 3.0 | 0.12 | 0.00 | 0.00 | 97 | 1015.7 |
| 20260904035827 | 68 | 4 | 1.0 | 1.0 | 0.38 | 0.73 | 0.73 | 97 | 1015.7 |
| 20260904035323 | 68 | 42 | 2.0 | 3.0 | 0.19 | 0.70 | 0.70 | 97 | 1015.7 |
| 20260904034821 | 68 | 320 | 2.0 | 4.0 | 0.00 | 0.67 | 0.67 | 97 | 1016.4 |
| 20260904034317 | 68 | 6 | 8.0 | 10.0 | 0.00 | 0.67 | 0.67 | 97 | 1016.0 |
| 20260904033813 | 68 | 338 | 1.0 | 3.0 | 0.00 | 0.67 | 0.67 | 97 | 1015.4 |
| 20260904033309 | 68 | 217 | 4.0 | 5.0 | 0.00 | 0.67 | 0.67 | 97 | 1015.2 |
| 20260904032805 | 68 | 137 | 1.0 | 7.0 | 0.00 | 0.67 | 0.67 | 97 | 1015.2 |
| 20260904032306 | 68 | 170 | 3.0 | 4.0 | 0.00 | 0.67 | 0.67 | 97 | 1015.2 |
| 20260904031759 | 68 | 224 | 1.0 | 8.0 | 0.00 | 0.67 | 0.67 | 97 | 1015.2 |
| 20260904031254 | 68 | 250 | 3.0 | 5.0 | 0.00 | 0.67 | 0.67 | 97 | 1015.3 |
| 20260904030750 | 68 | 143 | 1.0 | 7.0 | 0.00 | 0.67 | 0.67 | 97 | 1015.4 |
| 20260904030245 | 68 | 228 | 3.0 | 4.0 | 0.00 | 0.67 | 0.67 | 97 | 1015.3 |
| 20260904025736 | 68 | 98 | 3.0 | 4.0 | 0.00 | 0.67 | 0.67 | 97 | 1015.4 |
| 20260904025231 | 68 | 214 | 0.0 | 3.0 | 0.00 | 0.67 | 0.67 | 97 | 1015.4 |
| 20260904024726 | 68 | 338 | 2.0 | 3.0 | 0.00 | 0.67 | 0.67 | 97 | 1015.4 |
| 20260904024221 | 68 | 262 | 3.0 | 3.0 | 0.00 | 0.67 | 0.67 | 97 | 1015.6 |
| 20260904023712 | 68 | 210 | 2.0 | 5.0 | 0.00 | 0.67 | 0.67 | 97 | 1015.5 |
| 20260904023208 | 68 | 213 | 4.0 | 5.0 | 0.00 | 0.67 | 0.67 | 97 | 1015.3 |
| 20260904022707 | 68 | 231 | 3.0 | 5.0 | 0.00 | 0.67 | 0.67 | 98 | 1015.2 |
| 20260904022204 | 68 | 133 | 3.0 | 3.0 | 0.00 | 0.67 | 0.67 | 97 | 1015.3 |
| 20260904021659 | 68 | 315 | 0.0 | 4.0 | 0.00 | 0.67 | 0.67 | 97 | 1015.2 |
| 20260904021153 | 68 | 239 | 3.0 | 5.0 | 0.00 | 0.67 | 0.67 | 97 | 1015.4 |
| 20260904020645 | 68 | 168 | 2.0 | 5.0 | 0.00 | 0.67 | 0.67 | 97 | 1015.4 |
| 20260904020139 | 68 | 100 | 1.0 | 1.0 | 0.00 | 0.67 | 0.67 | 97 | 1015.6 |
| 20260904015638 | 68 | 224 | 2.0 | 3.0 | 0.00 | 0.67 | 0.67 | 97 | 1015.5 |
| 20260904015137 | 68 | 222 | 2.0 | 3.0 | 0.00 | 0.67 | 0.67 | 97 | 1015.4 |
| 20260904014636 | 68 | 127 | 1.0 | 1.0 | 0.00 | 0.67 | 0.67 | 97 | 1015.3 |
| 20260904014132 | 68 | 120 | 0.0 | 1.0 | 0.00 | 0.67 | 0.67 | 97 | 1015.3 |
| 20260904013629 | 68 | 122 | 1.0 | 3.0 | 0.00 | 0.67 | 0.67 | 97 | 1015.2 |
| 20260904013124 | 68 | 161 | 1.0 | 1.0 | 0.00 | 0.67 | 0.67 | 97 | 1015.1 |
| 20260904012620 | 68 | 95 | 0.0 | 1.0 | 0.00 | 0.67 | 0.67 | 97 | 1015.3 |
| 20260904012119 | 68 | 85 | 1.0 | 4.0 | 0.00 | 0.67 | 0.67 | 97 | 1015.2 |
| 20260904011618 | 68 | 93 | 1.0 | 1.0 | 0.00 | 0.67 | 0.67 | 97 | 1015.1 |
| 20260904011114 | 68 | 86 | 0.0 | 1.0 | 0.00 | 0.67 | 0.67 | 97 | 1015.0 |
| 20260904010609 | 68 | 335 | 1.0 | 1.0 | 0.00 | 0.67 | 0.67 | 97 | 1015.4 |
| 20260904010106 | 68 | 121 | 0.0 | 4.0 | 0.00 | 0.67 | 0.67 | 97 | 1015.6 |
| 20260904005600 | 68 | 105 | 2.0 | 3.0 | 0.00 | 0.67 | 0.67 | 97 | 1015.8 |
| 20260904005056 | 68 | 138 | 1.0 | 3.0 | 0.00 | 0.67 | 0.67 | 97 | 1015.6 |
| 20260904004551 | 68 | 63 | 0.0 | 0.0 | 0.00 | 0.67 | 0.67 | 96 | 1016.0 |
| 20260904004046 | 68 | 230 | 0.0 | 0.0 | 0.00 | 0.67 | 0.67 | 96 | 1016.0 |
| 20260904003542 | 68 | 116 | 3.0 | 3.0 | 0.00 | 0.67 | 0.67 | 96 | 1015.5 |
| 20260904003038 | 68 | 93 | 3.0 | 5.0 | 0.00 | 0.67 | 0.67 | 96 | 1015.6 |
| 20260904002533 | 68 | 76 | 1.0 | 1.0 | 0.00 | 0.67 | 0.67 | 96 | 1015.7 |
| 20260904002033 | 68 | 63 | 1.0 | 1.0 | 0.05 | 0.67 | 0.67 | 96 | 1015.9 |
| 20260904001529 | 68 | 76 | 3.0 | 5.0 | 0.05 | 0.67 | 0.67 | 96 | 1015.8 |
| 20260904001028 | 68 | 65 | 0.0 | 4.0 | 0.07 | 0.66 | 0.66 | 96 | 1016.1 |
| 20260904000527 | 68 | 79 | 0.0 | 4.0 | 0.19 | 0.66 | 0.66 | 95 | 1016.2 |
| 20260904000023 | 68 | 89 | 1.0 | 4.0 | 0.24 | 0.65 | 0.65 | 95 | 1016.4 |
| 20260903235518 | 68 | 16 | 3.0 | 5.0 | 0.24 | 0.63 | 0.63 | 95 | 1017.0 |
| 20260903235014 | 68 | 57 | 2.0 | 5.0 | 0.17 | 0.61 | 0.61 | 95 | 1017.3 |
| 20260903234509 | 69 | 36 | 5.0 | 5.0 | 0.19 | 0.59 | 0.59 | 95 | 1017.6 |
| 20260903234005 | 69 | 44 | 1.0 | 4.0 | 0.31 | 0.57 | 0.57 | 94 | 1017.9 |
| 20260903233501 | 69 | 55 | 7.0 | 11.0 | 0.47 | 0.56 | 0.56 | 94 | 1017.7 |
| 20260903232955 | 69 | 357 | 8.0 | 10.0 | 0.61 | 0.51 | 0.51 | 94 | 1017.8 |
| 20260903232451 | 69 | 341 | 4.0 | 8.0 | 0.73 | 0.47 | 0.47 | 93 | 1018.1 |
| 20260903231950 | 70 | 320 | 3.0 | 7.0 | 0.47 | 0.40 | 0.40 | 92 | 1018.2 |
| 20260903231446 | 70 | 342 | 8.0 | 11.0 | 0.31 | 0.35 | 0.35 | 92 | 1017.8 |
| 20260903230940 | 71 | 41 | 7.0 | 12.0 | 0.12 | 0.31 | 0.31 | 91 | 1017.1 |
| 20260903230436 | 71 | 357 | 17.0 | 26.0 | 0.05 | 0.30 | 0.30 | 88 | 1016.7 |
| 20260903225932 | 72 | 350 | 16.0 | 23.0 | 0.00 | 0.29 | 0.29 | 86 | 1016.3 |
| 20260903225427 | 74 | 356 | 22.0 | 33.0 | 0.00 | 0.29 | 0.29 | 83 | 1016.6 |
| 20260903224924 | 76 | 21 | 30.0 | 37.0 | 0.00 | 0.29 | 0.29 | 81 | 1016.3 |
| 20260903224419 | 75 | 344 | 6.0 | 7.0 | 0.00 | 0.29 | 0.29 | 85 | 1014.8 |
| 20260903223915 | 75 | 358 | 5.0 | 5.0 | 0.00 | 0.29 | 0.29 | 85 | 1014.4 |
| 20260903223414 | 75 | 5 | 8.0 | 10.0 | 0.00 | 0.29 | 0.29 | 86 | 1014.4 |
| 20260903222913 | 75 | 343 | 3.0 | 10.0 | 0.00 | 0.29 | 0.29 | 87 | 1014.3 |
| 20260903222408 | 75 | 330 | 2.0 | 3.0 | 0.00 | 0.29 | 0.29 | 88 | 1014.4 |
| 20260903221902 | 75 | 66 | 3.0 | 7.0 | 0.00 | 0.29 | 0.29 | 88 | 1014.4 |
| 20260903221402 | 75 | 333 | 1.0 | 4.0 | 0.00 | 0.29 | 0.29 | 87 | 1014.5 |
| 20260903220900 | 76 | 169 | 1.0 | 3.0 | 0.00 | 0.29 | 0.29 | 86 | 1014.3 |
| 20260903220348 | 76 | 72 | 2.0 | 5.0 | 0.00 | 0.29 | 0.29 | 83 | 1013.9 |
| 20260903215846 | 76 | 24 | 1.0 | 1.0 | 0.00 | 0.29 | 0.29 | 81 | 1014.1 |
| 20260903215344 | 76 | 139 | 2.0 | 3.0 | 0.00 | 0.29 | 0.29 | 83 | 1014.7 |
| 20260903214841 | 76 | 124 | 2.0 | 7.0 | 0.00 | 0.29 | 0.29 | 80 | 1014.1 |
| 20260903214337 | 76 | 200 | 3.0 | 4.0 | 0.00 | 0.29 | 0.29 | 84 | 1014.4 |
| 20260903213831 | 77 | 147 | 0.0 | 3.0 | 0.00 | 0.29 | 0.29 | 82 | 1014.3 |
| 20260903213327 | 77 | 349 | 1.0 | 3.0 | 0.00 | 0.29 | 0.29 | 81 | 1014.6 |
| 20260903212823 | 76 | 145 | 2.0 | 5.0 | 0.00 | 0.29 | 0.29 | 81 | 1014.2 |
| 20260903212319 | 77 | 314 | 1.0 | 1.0 | 0.00 | 0.29 | 0.29 | 81 | 1014.0 |
| 20260903211818 | 77 | 248 | 5.0 | 7.0 | 0.00 | 0.29 | 0.29 | 80 | 1013.8 |
| 20260903211315 | 77 | 283 | 4.0 | 7.0 | 0.00 | 0.29 | 0.29 | 79 | 1013.8 |
| 20260903210810 | 77 | 220 | 3.0 | 7.0 | 0.00 | 0.29 | 0.29 | 77 | 1014.0 |
| 20260903210305 | 78 | 106 | 4.0 | 10.0 | 0.00 | 0.29 | 0.29 | 75 | 1013.8 |
| 20260903205759 | 78 | 219 | 1.0 | 11.0 | 0.00 | 0.29 | 0.29 | 73 | 1013.8 |
| 20260903205259 | 79 | 162 | 6.0 | 7.0 | 0.00 | 0.29 | 0.29 | 69 | 1013.9 |
| 20260903204754 | 80 | 117 | 3.0 | 3.0 | 0.00 | 0.29 | 0.29 | 66 | 1013.8 |
| 20260903204250 | 79 | 99 | 3.0 | 5.0 | 0.00 | 0.29 | 0.29 | 66 | 1014.1 |
| 20260903203751 | 79 | 149 | 6.0 | 7.0 | 0.00 | 0.29 | 0.29 | 66 | 1014.0 |
| 20260903203246 | 79 | 106 | 3.0 | 4.0 | 0.00 | 0.29 | 0.29 | 67 | 1014.3 |
| 20260903202745 | 79 | 64 | 2.0 | 5.0 | 0.00 | 0.29 | 0.29 | 64 | 1014.4 |
| 20260903202242 | 79 | 121 | 7.0 | 12.0 | 0.00 | 0.29 | 0.29 | 65 | 1014.3 |
| 20260903201741 | 79 | 162 | 8.0 | 10.0 | 0.00 | 0.29 | 0.29 | 67 | 1014.5 |
| 20260903201236 | 78 | 351 | 5.0 | 11.0 | 0.00 | 0.29 | 0.29 | 65 | 1014.8 |
| 20260903200735 | 75 | 351 | 13.0 | 16.0 | 0.00 | 0.29 | 0.29 | 66 | 1014.8 |
| 20260903200231 | 77 | 151 | 18.0 | 36.0 | 0.00 | 0.29 | 0.29 | 65 | 1014.0 |
| 20260903195726 | 78 | 225 | 4.0 | 12.0 | 0.00 | 0.29 | 0.29 | 66 | 1014.3 |
| 20260903195222 | 79 | 226 | 9.0 | 18.0 | 0.00 | 0.29 | 0.29 | 62 | 1013.8 |
| 20260903194722 | 80 | 229 | 6.0 | 14.0 | 0.00 | 0.29 | 0.29 | 62 | 1013.5 |
| 20260903194218 | 82 | 247 | 4.0 | 11.0 | 0.00 | 0.29 | 0.29 | 58 | 1013.8 |
| 20260903193713 | 83 | 212 | 6.0 | 12.0 | 0.00 | 0.29 | 0.29 | 56 | 1013.8 |
| 20260903193208 | 84 | 223 | 13.0 | 18.0 | 0.00 | 0.29 | 0.29 | 55 | 1013.9 |
| 20260903192704 | 87 | 291 | 9.0 | 15.0 | 0.00 | 0.29 | 0.29 | 59 | 1014.1 |
| 20260903192200 | 88 | 268 | 8.0 | 14.0 | 0.00 | 0.29 | 0.29 | 62 | 1013.9 |
| 20260903191656 | 89 | 236 | 1.0 | 4.0 | 0.00 | 0.29 | 0.29 | 65 | 1013.4 |
| 20260903191155 | 89 | 232 | 2.0 | 4.0 | 0.00 | 0.29 | 0.29 | 66 | 1013.4 |
| 20260903190650 | 89 | 217 | 4.0 | 5.0 | 0.00 | 0.29 | 0.29 | 64 | 1013.9 |
| 20260903190145 | 91 | 215 | 4.0 | 7.0 | 0.00 | 0.29 | 0.29 | 62 | 1014.2 |
| 20260903185640 | 92 | 151 | 2.0 | 3.0 | 0.00 | 0.29 | 0.29 | 61 | 1014.5 |
| 20260903185135 | 92 | 145 | 5.0 | 8.0 | 0.00 | 0.29 | 0.29 | 58 | 1014.4 |
| 20260903184632 | 91 | 227 | 1.0 | 4.0 | 0.00 | 0.29 | 0.29 | 60 | 1014.4 |
| 20260903184127 | 91 | 125 | 3.0 | 8.0 | 0.00 | 0.29 | 0.29 | 62 | 1014.6 |
| 20260903183625 | 91 | 184 | 3.0 | 5.0 | 0.00 | 0.29 | 0.29 | 60 | 1014.7 |
| 20260903183121 | 91 | 42 | 0.0 | 3.0 | 0.00 | 0.29 | 0.29 | 63 | 1015.0 |
| 20260903182620 | 90 | 199 | 3.0 | 5.0 | 0.00 | 0.29 | 0.29 | 61 | 1014.8 |
| 20260903182116 | 90 | 169 | 4.0 | 5.0 | 0.00 | 0.29 | 0.29 | 62 | 1014.8 |
| 20260903181614 | 89 | 267 | 2.0 | 5.0 | 0.00 | 0.29 | 0.29 | 65 | 1015.0 |
| 20260903181109 | 89 | 351 | 1.0 | 4.0 | 0.00 | 0.29 | 0.29 | 63 | 1014.9 |
| 20260903180605 | 89 | 238 | 6.0 | 10.0 | 0.00 | 0.29 | 0.29 | 64 | 1014.9 |
| 20260903180059 | 88 | 240 | 5.0 | 7.0 | 0.00 | 0.29 | 0.29 | 65 | 1015.1 |
| 20260903175558 | 88 | 284 | 2.0 | 7.0 | 0.00 | 0.29 | 0.29 | 65 | 1015.0 |
| 20260903175058 | 88 | 355 | 7.0 | 8.0 | 0.00 | 0.29 | 0.29 | 64 | 1015.1 |
| 20260903174553 | 88 | 236 | 4.0 | 5.0 | 0.00 | 0.29 | 0.29 | 65 | 1015.1 |
| 20260903174047 | 87 | 251 | 5.0 | 7.0 | 0.00 | 0.29 | 0.29 | 69 | 1015.2 |
| 20260903173542 | 87 | 283 | 3.0 | 4.0 | 0.00 | 0.29 | 0.29 | 67 | 1015.4 |
| 20260903173038 | 88 | 262 | 2.0 | 5.0 | 0.00 | 0.29 | 0.29 | 67 | 1015.5 |
| 20260903172533 | 88 | 273 | 3.0 | 3.0 | 0.00 | 0.29 | 0.29 | 66 | 1015.5 |
| 20260903172028 | 87 | 255 | 3.0 | 5.0 | 0.00 | 0.29 | 0.29 | 66 | 1015.7 |
| 20260903171523 | 87 | 260 | 1.0 | 3.0 | 0.00 | 0.29 | 0.29 | 67 | 1015.6 |